Regional Weather Roundup
Issued by NWS

Home | Current Version | Previous Version | Text Only | Print | Product List | Glossary On
Versions: 1 2 3 4 5 6 7 8 9 10 11 12 13 14 15 16 17 18 19 20 21 22 23 24 25 26 27
000
ASUS44 KJAN 271310
RWRMS

MISSISSIPPI HOURLY WEATHER ROUNDUP
NATIONAL WEATHER SERVICE JACKSON MS
800 AM CDT THU APR 27 2017

NOTE: "FAIR: INDICATES FEW OR NO CLOUDS BELOW 12,000 FEET WITH NO
SIGNIFICANT WEATHER AND/OR OBSTRUCTIONS TO VISIBILITY.

MSZ001>002-007>008-010>013-018>021-025>028-034>036-271400-
NORTHWEST MISSISSIPPI

CITY           SKY/WX    TMP DP  RH WIND       PRES   REMARKS
BATESVILLE     CLOUDY    54  48  82 CALM      29.82R
CLARKSDALE     CLOUDY    52  52 100 NW7G13    29.82R FOG
CLEVELAND      CLOUDY    53  50  90 NW9       29.82R
GREENWOOD      CLOUDY    54  50  86 NW3       29.82R
GREENVILLE     CLOUDY    53  46  77 N8        29.82R
OLIVE BRANCH   CLOUDY   N/A N/A N/A NW6       29.79R
OXFORD         CLOUDY    50  48  93 NW9       29.83R
TUNICA         CLOUDY    52  45  76 NW3       29.83R
WINONA         CLOUDY    53  53 100 NW7       29.82R FOG
$$

MSZ003>006-009-014>017-022>024-029>033-037>039-271400-
NORTHEAST MISSISSIPPI

CITY           SKY/WX    TMP DP  RH WIND       PRES   REMARKS
COLUMBUS AFB   PTSUNNY   64  61  88 W12       29.76R
CORINTH        CLOUDY    55  52  88 W10       29.78R
STARKVILLE     CLOUDY    59  59 100 W6        29.79R
TUPELO         CLOUDY    57  53  86 NW12G18   29.78R
$$

MSZ040-058-271400-
CENTRAL MISSISSIPPI

CITY           SKY/WX    TMP DP  RH WIND       PRES   REMARKS
JACKSON INTL   CLOUDY    58  56  93 W9        29.81R
JACKSON HAWKNS CLOUDY    56  54  93 NW9       29.82R FOG
MADISON        CLOUDY    55  54  94 CALM      29.81R
MERIDIAN KEY   PTSUNNY   64  62  93 W3        29.79R
MERIDIAN NAS   MOSUNNY   65  60  84 W6        29.78R
RAYMOND        CLOUDY    55  54  94 NW7       29.82R FOG
VICKSBURG VKS  CLOUDY    54  52  94 NW8       29.82R
$$

MSZ059>079-271400-
SOUTH MISSISSIPPI

CITY           SKY/WX    TMP DP  RH WIND       PRES   REMARKS
HATTIESBURG    CLOUDY    64  61  90 NW6       29.80R
LAUREL         CLOUDY    63  63 100 NW6       29.80R
MCCOMB         CLOUDY    57  52  83 N9        29.82R
NATCHEZ        CLOUDY    54  49  83 N7        29.85R
PINE BELT      CLOUDY    63  59  88 NW7       29.81R
$$

MSZ080>082-271400-
COASTAL MISSISSIPPI

CITY           SKY/WX    TMP DP  RH WIND       PRES   REMARKS
BAY ST LOUIS   PTSUNNY   63  57  82 N5        29.79R
BILOXI         CLOUDY    66  62  86 N8        29.78R
PASCAGOULA     CLOUDY    68  62  81 N6        29.78R
GULFPORT       CLOUDY    67  61  81 NW12      29.78R
$$

LAZ007>009-015>016-023>026-271400-
NORTHEAST LOUISIANA

CITY           SKY/WX    TMP DP  RH WIND       PRES   REMARKS
BASTROP        FAIR      54  53  98 NW5       29.84R
TALLULAH/VBURG CLOUDY    55  48  77 NW7       29.84R
VIDALIA        CLOUDY    55  49  80 NW8       29.85R
$$




USA.gov is the U.S. government's official web portal to all federal, state and local government web resources and services.